Location: Austin
(30.3000°N, 97.7500°W)
Time: 23:50:17
(UTC-05:00)

Cosmos 2082 Rocket - Pass Details

Date: 23 March 2026
Orbit: 831 x 854 km, 71.0° (Epoch: 20 April)

Event Time Altitude Azimuth Distance (km) Brightness Sun altitude
Rises 06:35:50 0° 150° (SSE) 3,377 5.6 -12.7°
Reaches altitude 10° 06:39:49 10° 122° (ESE) 2,454 5.4 -11.8°
Maximum altitude 06:42:05 13° 98° (E) 2,282 5.7 -11.4°
Drops below altitude 10° 06:44:21 10° 74° (ENE) 2,465 6.2 -10.9°
Sets 06:48:21 0° 46° (NE) 3,411 6.3 -10.0°
